Torna al catalogo

FENGYUN 1C DEB

LostSSO
NORAD 36177·DEBRIS·🇨🇳 China

Lanciato May 10, 1999 da Taiyuan Satellite Launch Center

Loading…

Prossimi Passaggi (prossime 24 ore)

TLE

ObsoletoSource: Space-Track

Epoca: Aug 5, 2026, 08:46 UTC

1 36177U 99025DTA 26217.36543295  .00001005  00000-0  49182-3 0  9997
2 36177  98.6101 252.7759 0038045 247.0240 112.6921 14.19726825273714

Traccia FENGYUN 1C DEB in tempo reale con AllMySat

Download on the App Store